Index of /20260429/WXO-DD/model_gdps/15km/12/018
Name Last modified Size Description
Parent Directory -
20260429T12Z_MSC_GDPS_AbsoluteVorticity_IsbL-0200_LatLon0.15_PT018H.grib2 2026-04-29 15:59 1.2M
20260429T12Z_MSC_GDPS_AbsoluteVorticity_IsbL-0250_LatLon0.15_PT018H.grib2 2026-04-29 15:59 1.3M
20260429T12Z_MSC_GDPS_AbsoluteVorticity_IsbL-0500_LatLon0.15_PT018H.grib2 2026-04-29 15:59 1.5M
20260429T12Z_MSC_GDPS_AbsoluteVorticity_IsbL-0700_LatLon0.15_PT018H.grib2 2026-04-29 15:59 1.6M
20260429T12Z_MSC_GDPS_AbsoluteVorticity_IsbL-0850_LatLon0.15_PT018H.grib2 2026-04-29 15:59 1.6M
20260429T12Z_MSC_GDPS_AirTemp-Max_AGL-2m_LatLon0.15_PT018H.grib2 2026-04-29 15:59 740K
20260429T12Z_MSC_GDPS_AirTemp-Min_AGL-2m_LatLon0.15_PT018H.grib2 2026-04-29 15:59 791K
20260429T12Z_MSC_GDPS_AirTemp_AGL-120m_LatLon0.15_PT018H.grib2 2026-04-29 15:59 906K
20260429T12Z_MSC_GDPS_AirTemp_AGL-2m_LatLon0.15_PT018H.grib2 2026-04-29 15:59 1.0M
20260429T12Z_MSC_GDPS_AirTemp_AGL-40m_LatLon0.15_PT018H.grib2 2026-04-29 15:59 809K
20260429T12Z_MSC_GDPS_AirTemp_AGL-80m_LatLon0.15_PT018H.grib2 2026-04-29 15:59 915K
20260429T12Z_MSC_GDPS_AirTemp_IsbL-0001_LatLon0.15_PT018H.grib2 2026-04-29 15:59 657K
20260429T12Z_MSC_GDPS_AirTemp_IsbL-0005_LatLon0.15_PT018H.grib2 2026-04-29 15:59 686K
20260429T12Z_MSC_GDPS_AirTemp_IsbL-0010_LatLon0.15_PT018H.grib2 2026-04-29 15:59 764K
20260429T12Z_MSC_GDPS_AirTemp_IsbL-0020_LatLon0.15_PT018H.grib2 2026-04-29 15:59 785K
20260429T12Z_MSC_GDPS_AirTemp_IsbL-0030_LatLon0.15_PT018H.grib2 2026-04-29 15:59 752K
20260429T12Z_MSC_GDPS_AirTemp_IsbL-0050_LatLon0.15_PT018H.grib2 2026-04-29 15:59 805K
20260429T12Z_MSC_GDPS_AirTemp_IsbL-0100_LatLon0.15_PT018H.grib2 2026-04-29 15:59 953K
20260429T12Z_MSC_GDPS_AirTemp_IsbL-0150_LatLon0.15_PT018H.grib2 2026-04-29 15:59 1.0M
20260429T12Z_MSC_GDPS_AirTemp_IsbL-0175_LatLon0.15_PT018H.grib2 2026-04-29 15:59 954K
20260429T12Z_MSC_GDPS_AirTemp_IsbL-0200_LatLon0.15_PT018H.grib2 2026-04-29 15:59 968K
20260429T12Z_MSC_GDPS_AirTemp_IsbL-0225_LatLon0.15_PT018H.grib2 2026-04-29 15:59 1.0M
20260429T12Z_MSC_GDPS_AirTemp_IsbL-0250_LatLon0.15_PT018H.grib2 2026-04-29 15:59 1.0M
20260429T12Z_MSC_GDPS_AirTemp_IsbL-0275_LatLon0.15_PT018H.grib2 2026-04-29 15:59 1.0M
20260429T12Z_MSC_GDPS_AirTemp_IsbL-0300_LatLon0.15_PT018H.grib2 2026-04-29 15:59 1.0M
20260429T12Z_MSC_GDPS_AirTemp_IsbL-0350_LatLon0.15_PT018H.grib2 2026-04-29 15:59 927K
20260429T12Z_MSC_GDPS_AirTemp_IsbL-0400_LatLon0.15_PT018H.grib2 2026-04-29 15:59 936K
20260429T12Z_MSC_GDPS_AirTemp_IsbL-0450_LatLon0.15_PT018H.grib2 2026-04-29 15:59 959K
20260429T12Z_MSC_GDPS_AirTemp_IsbL-0500_LatLon0.15_PT018H.grib2 2026-04-29 15:59 1.0M
20260429T12Z_MSC_GDPS_AirTemp_IsbL-0550_LatLon0.15_PT018H.grib2 2026-04-29 15:59 797K
20260429T12Z_MSC_GDPS_AirTemp_IsbL-0600_LatLon0.15_PT018H.grib2 2026-04-29 15:59 893K
20260429T12Z_MSC_GDPS_AirTemp_IsbL-0650_LatLon0.15_PT018H.grib2 2026-04-29 15:59 919K
20260429T12Z_MSC_GDPS_AirTemp_IsbL-0700_LatLon0.15_PT018H.grib2 2026-04-29 15:59 949K
20260429T12Z_MSC_GDPS_AirTemp_IsbL-0750_LatLon0.15_PT018H.grib2 2026-04-29 15:59 1.0M
20260429T12Z_MSC_GDPS_AirTemp_IsbL-0800_LatLon0.15_PT018H.grib2 2026-04-29 15:59 1.1M
20260429T12Z_MSC_GDPS_AirTemp_IsbL-0850_LatLon0.15_PT018H.grib2 2026-04-29 15:59 1.1M
20260429T12Z_MSC_GDPS_AirTemp_IsbL-0875_LatLon0.15_PT018H.grib2 2026-04-29 15:59 1.1M
20260429T12Z_MSC_GDPS_AirTemp_IsbL-0900_LatLon0.15_PT018H.grib2 2026-04-29 15:59 1.1M
20260429T12Z_MSC_GDPS_AirTemp_IsbL-0925_LatLon0.15_PT018H.grib2 2026-04-29 15:59 1.1M
20260429T12Z_MSC_GDPS_AirTemp_IsbL-0950_LatLon0.15_PT018H.grib2 2026-04-29 15:59 1.1M
20260429T12Z_MSC_GDPS_AirTemp_IsbL-0970_LatLon0.15_PT018H.grib2 2026-04-29 15:59 1.2M
20260429T12Z_MSC_GDPS_AirTemp_IsbL-0985_LatLon0.15_PT018H.grib2 2026-04-29 15:59 1.1M
20260429T12Z_MSC_GDPS_AirTemp_IsbL-1000_LatLon0.15_PT018H.grib2 2026-04-29 15:59 1.1M
20260429T12Z_MSC_GDPS_AirTemp_IsbL-1015_LatLon0.15_PT018H.grib2 2026-04-29 15:59 1.1M
20260429T12Z_MSC_GDPS_Albedo_Sfc_LatLon0.15_PT018H.grib2 2026-04-29 15:59 244K
20260429T12Z_MSC_GDPS_CAPE_Sfc_LatLon0.15_PT018H.grib2 2026-04-29 15:59 3.9M
20260429T12Z_MSC_GDPS_CIN_Sfc_LatLon0.15_PT018H.grib2 2026-04-29 15:59 2.9M
20260429T12Z_MSC_GDPS_CloudWater_EAtm_LatLon0.15_PT018H.grib2 2026-04-29 15:59 528K
20260429T12Z_MSC_GDPS_ConvectivePrecip-Accum_Sfc_LatLon0.15_PT018H.grib2 2026-04-29 15:59 2.1M
20260429T12Z_MSC_GDPS_DewPointDepression_AGL-2m_LatLon0.15_PT018H.grib2 2026-04-29 15:59 763K
20260429T12Z_MSC_GDPS_DewPointDepression_IsbL-0010_LatLon0.15_PT018H.grib2 2026-04-29 15:59 54K
20260429T12Z_MSC_GDPS_DewPointDepression_IsbL-0020_LatLon0.15_PT018H.grib2 2026-04-29 15:59 65K
20260429T12Z_MSC_GDPS_DewPointDepression_IsbL-0030_LatLon0.15_PT018H.grib2 2026-04-29 15:59 72K
20260429T12Z_MSC_GDPS_DewPointDepression_IsbL-0050_LatLon0.15_PT018H.grib2 2026-04-29 15:59 368K
20260429T12Z_MSC_GDPS_DewPointDepression_IsbL-0100_LatLon0.15_PT018H.grib2 2026-04-29 15:59 416K
20260429T12Z_MSC_GDPS_DewPointDepression_IsbL-0150_LatLon0.15_PT018H.grib2 2026-04-29 15:59 460K
20260429T12Z_MSC_GDPS_DewPointDepression_IsbL-0175_LatLon0.15_PT018H.grib2 2026-04-29 15:59 552K
20260429T12Z_MSC_GDPS_DewPointDepression_IsbL-0200_LatLon0.15_PT018H.grib2 2026-04-29 15:59 673K
20260429T12Z_MSC_GDPS_DewPointDepression_IsbL-0225_LatLon0.15_PT018H.grib2 2026-04-29 15:59 790K
20260429T12Z_MSC_GDPS_DewPointDepression_IsbL-0250_LatLon0.15_PT018H.grib2 2026-04-29 15:59 877K
20260429T12Z_MSC_GDPS_DewPointDepression_IsbL-0275_LatLon0.15_PT018H.grib2 2026-04-29 15:59 886K
20260429T12Z_MSC_GDPS_DewPointDepression_IsbL-0300_LatLon0.15_PT018H.grib2 2026-04-29 15:59 927K
20260429T12Z_MSC_GDPS_DewPointDepression_IsbL-0350_LatLon0.15_PT018H.grib2 2026-04-29 15:59 949K
20260429T12Z_MSC_GDPS_DewPointDepression_IsbL-0400_LatLon0.15_PT018H.grib2 2026-04-29 15:59 1.0M
20260429T12Z_MSC_GDPS_DewPointDepression_IsbL-0450_LatLon0.15_PT018H.grib2 2026-04-29 15:59 1.0M
20260429T12Z_MSC_GDPS_DewPointDepression_IsbL-0500_LatLon0.15_PT018H.grib2 2026-04-29 15:59 1.0M
20260429T12Z_MSC_GDPS_DewPointDepression_IsbL-0550_LatLon0.15_PT018H.grib2 2026-04-29 15:59 1.0M
20260429T12Z_MSC_GDPS_DewPointDepression_IsbL-0600_LatLon0.15_PT018H.grib2 2026-04-29 15:59 1.0M
20260429T12Z_MSC_GDPS_DewPointDepression_IsbL-0650_LatLon0.15_PT018H.grib2 2026-04-29 15:59 1.0M
20260429T12Z_MSC_GDPS_DewPointDepression_IsbL-0700_LatLon0.15_PT018H.grib2 2026-04-29 15:59 1.1M
20260429T12Z_MSC_GDPS_DewPointDepression_IsbL-0750_LatLon0.15_PT018H.grib2 2026-04-29 15:59 1.1M
20260429T12Z_MSC_GDPS_DewPointDepression_IsbL-0800_LatLon0.15_PT018H.grib2 2026-04-29 15:59 1.1M
20260429T12Z_MSC_GDPS_DewPointDepression_IsbL-0850_LatLon0.15_PT018H.grib2 2026-04-29 15:59 1.1M
20260429T12Z_MSC_GDPS_DewPointDepression_IsbL-0875_LatLon0.15_PT018H.grib2 2026-04-29 15:59 1.1M
20260429T12Z_MSC_GDPS_DewPointDepression_IsbL-0900_LatLon0.15_PT018H.grib2 2026-04-29 15:59 1.0M
20260429T12Z_MSC_GDPS_DewPointDepression_IsbL-0925_LatLon0.15_PT018H.grib2 2026-04-29 15:59 1.0M
20260429T12Z_MSC_GDPS_DewPointDepression_IsbL-0950_LatLon0.15_PT018H.grib2 2026-04-29 15:59 1.0M
20260429T12Z_MSC_GDPS_DewPointDepression_IsbL-0970_LatLon0.15_PT018H.grib2 2026-04-29 15:59 1.0M
20260429T12Z_MSC_GDPS_DewPointDepression_IsbL-0985_LatLon0.15_PT018H.grib2 2026-04-29 15:59 1.0M
20260429T12Z_MSC_GDPS_DewPointDepression_IsbL-1000_LatLon0.15_PT018H.grib2 2026-04-29 15:59 1.0M
20260429T12Z_MSC_GDPS_DewPointDepression_IsbL-1015_LatLon0.15_PT018H.grib2 2026-04-29 15:59 915K
20260429T12Z_MSC_GDPS_DewPoint_AGL-2m_LatLon0.15_PT018H.grib2 2026-04-29 15:59 606K
20260429T12Z_MSC_GDPS_DownwardLongwaveRadiationFlux-Accum_Sfc_LatLon0.15_PT018H.grib2 2026-04-29 15:59 868K
20260429T12Z_MSC_GDPS_DownwardShortwaveRadiationFlux-Accum_NTAtm_LatLon0.15_PT018H.grib2 2026-04-29 15:59 356K
20260429T12Z_MSC_GDPS_DownwardShortwaveRadiationFlux-Accum_Sfc_LatLon0.15_PT018H.grib2 2026-04-29 15:59 1.1M
20260429T12Z_MSC_GDPS_FreezingRain-Accum12h_Sfc_LatLon0.15_PT018H.grib2 2026-04-29 15:59 97K
20260429T12Z_MSC_GDPS_FreezingRain-Accum1h_Sfc_LatLon0.15_PT018H.grib2 2026-04-29 15:59 36K
20260429T12Z_MSC_GDPS_FreezingRain-Accum3h_Sfc_LatLon0.15_PT018H.grib2 2026-04-29 15:59 45K
20260429T12Z_MSC_GDPS_FreezingRain-Accum6h_Sfc_LatLon0.15_PT018H.grib2 2026-04-29 15:59 76K
20260429T12Z_MSC_GDPS_FreezingRain-Accum_Sfc_LatLon0.15_PT018H.grib2 2026-04-29 15:59 163K
20260429T12Z_MSC_GDPS_GeopotentialHeight_IsbL-0001_LatLon0.15_PT018H.grib2 2026-04-29 15:59 445K
20260429T12Z_MSC_GDPS_GeopotentialHeight_IsbL-0005_LatLon0.15_PT018H.grib2 2026-04-29 15:59 487K
20260429T12Z_MSC_GDPS_GeopotentialHeight_IsbL-0010_LatLon0.15_PT018H.grib2 2026-04-29 15:59 478K
20260429T12Z_MSC_GDPS_GeopotentialHeight_IsbL-0020_LatLon0.15_PT018H.grib2 2026-04-29 15:59 418K
20260429T12Z_MSC_GDPS_GeopotentialHeight_IsbL-0030_LatLon0.15_PT018H.grib2 2026-04-29 15:59 576K
20260429T12Z_MSC_GDPS_GeopotentialHeight_IsbL-0050_LatLon0.15_PT018H.grib2 2026-04-29 15:59 577K
20260429T12Z_MSC_GDPS_GeopotentialHeight_IsbL-0100_LatLon0.15_PT018H.grib2 2026-04-29 15:59 610K
20260429T12Z_MSC_GDPS_GeopotentialHeight_IsbL-0150_LatLon0.15_PT018H.grib2 2026-04-29 15:59 630K
20260429T12Z_MSC_GDPS_GeopotentialHeight_IsbL-0175_LatLon0.15_PT018H.grib2 2026-04-29 15:59 633K
20260429T12Z_MSC_GDPS_GeopotentialHeight_IsbL-0200_LatLon0.15_PT018H.grib2 2026-04-29 15:59 637K
20260429T12Z_MSC_GDPS_GeopotentialHeight_IsbL-0225_LatLon0.15_PT018H.grib2 2026-04-29 15:59 640K
20260429T12Z_MSC_GDPS_GeopotentialHeight_IsbL-0250_LatLon0.15_PT018H.grib2 2026-04-29 15:59 642K
20260429T12Z_MSC_GDPS_GeopotentialHeight_IsbL-0275_LatLon0.15_PT018H.grib2 2026-04-29 15:59 640K
20260429T12Z_MSC_GDPS_GeopotentialHeight_IsbL-0300_LatLon0.15_PT018H.grib2 2026-04-29 15:59 633K
20260429T12Z_MSC_GDPS_GeopotentialHeight_IsbL-0350_LatLon0.15_PT018H.grib2 2026-04-29 15:59 632K
20260429T12Z_MSC_GDPS_GeopotentialHeight_IsbL-0400_LatLon0.15_PT018H.grib2 2026-04-29 15:59 623K
20260429T12Z_MSC_GDPS_GeopotentialHeight_IsbL-0450_LatLon0.15_PT018H.grib2 2026-04-29 15:59 615K
20260429T12Z_MSC_GDPS_GeopotentialHeight_IsbL-0500_LatLon0.15_PT018H.grib2 2026-04-29 15:59 605K
20260429T12Z_MSC_GDPS_GeopotentialHeight_IsbL-0550_LatLon0.15_PT018H.grib2 2026-04-29 15:59 528K
20260429T12Z_MSC_GDPS_GeopotentialHeight_IsbL-0600_LatLon0.15_PT018H.grib2 2026-04-29 15:59 522K
20260429T12Z_MSC_GDPS_GeopotentialHeight_IsbL-0650_LatLon0.15_PT018H.grib2 2026-04-29 15:59 686K
20260429T12Z_MSC_GDPS_GeopotentialHeight_IsbL-0700_LatLon0.15_PT018H.grib2 2026-04-29 15:59 687K
20260429T12Z_MSC_GDPS_GeopotentialHeight_IsbL-0750_LatLon0.15_PT018H.grib2 2026-04-29 15:59 690K
20260429T12Z_MSC_GDPS_GeopotentialHeight_IsbL-0800_LatLon0.15_PT018H.grib2 2026-04-29 15:59 700K
20260429T12Z_MSC_GDPS_GeopotentialHeight_IsbL-0850_LatLon0.15_PT018H.grib2 2026-04-29 15:59 710K
20260429T12Z_MSC_GDPS_GeopotentialHeight_IsbL-0875_LatLon0.15_PT018H.grib2 2026-04-29 15:59 714K
20260429T12Z_MSC_GDPS_GeopotentialHeight_IsbL-0900_LatLon0.15_PT018H.grib2 2026-04-29 15:59 718K
20260429T12Z_MSC_GDPS_GeopotentialHeight_IsbL-0925_LatLon0.15_PT018H.grib2 2026-04-29 15:59 728K
20260429T12Z_MSC_GDPS_GeopotentialHeight_IsbL-0950_LatLon0.15_PT018H.grib2 2026-04-29 15:59 734K
20260429T12Z_MSC_GDPS_GeopotentialHeight_IsbL-0970_LatLon0.15_PT018H.grib2 2026-04-29 15:59 746K
20260429T12Z_MSC_GDPS_GeopotentialHeight_IsbL-0985_LatLon0.15_PT018H.grib2 2026-04-29 15:59 763K
20260429T12Z_MSC_GDPS_GeopotentialHeight_IsbL-1000_LatLon0.15_PT018H.grib2 2026-04-29 15:59 784K
20260429T12Z_MSC_GDPS_GeopotentialHeight_IsbL-1015_LatLon0.15_PT018H.grib2 2026-04-29 15:59 807K
20260429T12Z_MSC_GDPS_Humidex_Sfc_LatLon0.15_PT018H.grib2 2026-04-29 15:59 5.3M
20260429T12Z_MSC_GDPS_IcePellets-Accum12h_Sfc_LatLon0.15_PT018H.grib2 2026-04-29 15:59 13K
20260429T12Z_MSC_GDPS_IcePellets-Accum1h_Sfc_LatLon0.15_PT018H.grib2 2026-04-29 15:59 7.3K
20260429T12Z_MSC_GDPS_IcePellets-Accum3h_Sfc_LatLon0.15_PT018H.grib2 2026-04-29 15:59 7.5K
20260429T12Z_MSC_GDPS_IcePellets-Accum6h_Sfc_LatLon0.15_PT018H.grib2 2026-04-29 15:59 11K
20260429T12Z_MSC_GDPS_IcePellets-Accum_Sfc_LatLon0.15_PT018H.grib2 2026-04-29 15:59 18K
20260429T12Z_MSC_GDPS_KIndex_Sfc_LatLon0.15_PT018H.grib2 2026-04-29 15:59 6.5M
20260429T12Z_MSC_GDPS_LatentHeatNetFlux_Sfc_LatLon0.15_PT018H.grib2 2026-04-29 15:59 535K
20260429T12Z_MSC_GDPS_LiftedIndex-MU-VT_IsbL-0500_LatLon0.15_PT018H.grib2 2026-04-29 15:59 5.4M
20260429T12Z_MSC_GDPS_NetLongwaveRadiationFlux-Accum_Sfc_LatLon0.15_PT018H.grib2 2026-04-29 15:59 1.1M
20260429T12Z_MSC_GDPS_NetShortwaveRadiationFlux-Accum_Sfc_LatLon0.15_PT018H.grib2 2026-04-29 15:59 1.0M
20260429T12Z_MSC_GDPS_O3MixingRatio_Sfc_LatLon0.15_PT018H.grib2 2026-04-29 16:49 2.1M
20260429T12Z_MSC_GDPS_O3_EAtm_LatLon0.15_PT018H.grib2 2026-04-29 16:49 2.5M
20260429T12Z_MSC_GDPS_PlanetaryBoundaryLayerHeight_Sfc_LatLon0.15_PT018H.grib2 2026-04-29 15:59 2.5M
20260429T12Z_MSC_GDPS_Precip-Accum12h_Sfc_LatLon0.15_PT018H.grib2 2026-04-29 15:59 4.0M
20260429T12Z_MSC_GDPS_Precip-Accum1h_Sfc_LatLon0.15_PT018H.grib2 2026-04-29 15:59 3.2M
20260429T12Z_MSC_GDPS_Precip-Accum3h_Sfc_LatLon0.15_PT018H.grib2 2026-04-29 15:59 3.5M
20260429T12Z_MSC_GDPS_Precip-Accum6h_Sfc_LatLon0.15_PT018H.grib2 2026-04-29 15:59 3.9M
20260429T12Z_MSC_GDPS_Precip-Accum_Sfc_LatLon0.15_PT018H.grib2 2026-04-29 15:59 4.2M
20260429T12Z_MSC_GDPS_PrecipRate_Sfc_LatLon0.15_PT018H.grib2 2026-04-29 15:59 2.9M
20260429T12Z_MSC_GDPS_PrecipType-Instant_Sfc_LatLon0.15_PT018H.grib2 2026-04-29 15:59 1.5M
20260429T12Z_MSC_GDPS_Pressure_MSL_LatLon0.15_PT018H.grib2 2026-04-29 15:59 717K
20260429T12Z_MSC_GDPS_Pressure_PVU-1.5_LatLon0.15_PT018H.grib2 2026-04-29 15:59 5.8M
20260429T12Z_MSC_GDPS_Pressure_PVU-1_LatLon0.15_PT018H.grib2 2026-04-29 15:59 6.0M
20260429T12Z_MSC_GDPS_Pressure_PVU-2_LatLon0.15_PT018H.grib2 2026-04-29 15:59 5.6M
20260429T12Z_MSC_GDPS_Pressure_Sfc_LatLon0.15_PT018H.grib2 2026-04-29 15:59 1.1M
20260429T12Z_MSC_GDPS_RadiativeTemp_Sfc_LatLon0.15_PT018H.grib2 2026-04-29 15:59 491K
20260429T12Z_MSC_GDPS_Rain-Accum12h_Sfc_LatLon0.15_PT018H.grib2 2026-04-29 15:59 2.6M
20260429T12Z_MSC_GDPS_Rain-Accum1h_Sfc_LatLon0.15_PT018H.grib2 2026-04-29 15:59 1.6M
20260429T12Z_MSC_GDPS_Rain-Accum3h_Sfc_LatLon0.15_PT018H.grib2 2026-04-29 15:59 1.8M
20260429T12Z_MSC_GDPS_Rain-Accum6h_Sfc_LatLon0.15_PT018H.grib2 2026-04-29 15:59 2.4M
20260429T12Z_MSC_GDPS_Rain-Accum_Sfc_LatLon0.15_PT018H.grib2 2026-04-29 15:59 3.0M
20260429T12Z_MSC_GDPS_RelativeHumidity_AGL-2m_LatLon0.15_PT018H.grib2 2026-04-29 15:59 1.1M
20260429T12Z_MSC_GDPS_RelativeHumidity_IsbL-0010_LatLon0.15_PT018H.grib2 2026-04-29 15:59 201K
20260429T12Z_MSC_GDPS_RelativeHumidity_IsbL-0020_LatLon0.15_PT018H.grib2 2026-04-29 15:59 173K
20260429T12Z_MSC_GDPS_RelativeHumidity_IsbL-0030_LatLon0.15_PT018H.grib2 2026-04-29 15:59 270K
20260429T12Z_MSC_GDPS_RelativeHumidity_IsbL-0050_LatLon0.15_PT018H.grib2 2026-04-29 15:59 515K
20260429T12Z_MSC_GDPS_RelativeHumidity_IsbL-0100_LatLon0.15_PT018H.grib2 2026-04-29 15:59 520K
20260429T12Z_MSC_GDPS_RelativeHumidity_IsbL-0150_LatLon0.15_PT018H.grib2 2026-04-29 15:59 657K
20260429T12Z_MSC_GDPS_RelativeHumidity_IsbL-0175_LatLon0.15_PT018H.grib2 2026-04-29 15:59 771K
20260429T12Z_MSC_GDPS_RelativeHumidity_IsbL-0200_LatLon0.15_PT018H.grib2 2026-04-29 15:59 687K
20260429T12Z_MSC_GDPS_RelativeHumidity_IsbL-0225_LatLon0.15_PT018H.grib2 2026-04-29 15:59 778K
20260429T12Z_MSC_GDPS_RelativeHumidity_IsbL-0250_LatLon0.15_PT018H.grib2 2026-04-29 15:59 859K
20260429T12Z_MSC_GDPS_RelativeHumidity_IsbL-0275_LatLon0.15_PT018H.grib2 2026-04-29 15:59 878K
20260429T12Z_MSC_GDPS_RelativeHumidity_IsbL-0300_LatLon0.15_PT018H.grib2 2026-04-29 15:59 921K
20260429T12Z_MSC_GDPS_RelativeHumidity_IsbL-0350_LatLon0.15_PT018H.grib2 2026-04-29 15:59 944K
20260429T12Z_MSC_GDPS_RelativeHumidity_IsbL-0400_LatLon0.15_PT018H.grib2 2026-04-29 15:59 968K
20260429T12Z_MSC_GDPS_RelativeHumidity_IsbL-0450_LatLon0.15_PT018H.grib2 2026-04-29 15:59 1.0M
20260429T12Z_MSC_GDPS_RelativeHumidity_IsbL-0500_LatLon0.15_PT018H.grib2 2026-04-29 15:59 1.0M
20260429T12Z_MSC_GDPS_RelativeHumidity_IsbL-0550_LatLon0.15_PT018H.grib2 2026-04-29 15:59 1.1M
20260429T12Z_MSC_GDPS_RelativeHumidity_IsbL-0600_LatLon0.15_PT018H.grib2 2026-04-29 15:59 1.1M
20260429T12Z_MSC_GDPS_RelativeHumidity_IsbL-0650_LatLon0.15_PT018H.grib2 2026-04-29 15:59 1.1M
20260429T12Z_MSC_GDPS_RelativeHumidity_IsbL-0700_LatLon0.15_PT018H.grib2 2026-04-29 15:59 1.1M
20260429T12Z_MSC_GDPS_RelativeHumidity_IsbL-0750_LatLon0.15_PT018H.grib2 2026-04-29 15:59 1.2M
20260429T12Z_MSC_GDPS_RelativeHumidity_IsbL-0800_LatLon0.15_PT018H.grib2 2026-04-29 15:59 1.2M
20260429T12Z_MSC_GDPS_RelativeHumidity_IsbL-0850_LatLon0.15_PT018H.grib2 2026-04-29 15:59 1.3M
20260429T12Z_MSC_GDPS_RelativeHumidity_IsbL-0875_LatLon0.15_PT018H.grib2 2026-04-29 15:59 1.3M
20260429T12Z_MSC_GDPS_RelativeHumidity_IsbL-0900_LatLon0.15_PT018H.grib2 2026-04-29 15:59 1.2M
20260429T12Z_MSC_GDPS_RelativeHumidity_IsbL-0925_LatLon0.15_PT018H.grib2 2026-04-29 15:59 1.2M
20260429T12Z_MSC_GDPS_RelativeHumidity_IsbL-0950_LatLon0.15_PT018H.grib2 2026-04-29 15:59 1.2M
20260429T12Z_MSC_GDPS_RelativeHumidity_IsbL-0970_LatLon0.15_PT018H.grib2 2026-04-29 15:59 1.2M
20260429T12Z_MSC_GDPS_RelativeHumidity_IsbL-0985_LatLon0.15_PT018H.grib2 2026-04-29 15:59 1.1M
20260429T12Z_MSC_GDPS_RelativeHumidity_IsbL-1000_LatLon0.15_PT018H.grib2 2026-04-29 15:59 1.1M
20260429T12Z_MSC_GDPS_RelativeHumidity_IsbL-1015_LatLon0.15_PT018H.grib2 2026-04-29 15:59 1.0M
20260429T12Z_MSC_GDPS_RelativeVorticity_IsbL-0200_LatLon0.15_PT018H.grib2 2026-04-29 15:59 1.2M
20260429T12Z_MSC_GDPS_RelativeVorticity_IsbL-0250_LatLon0.15_PT018H.grib2 2026-04-29 15:59 1.6M
20260429T12Z_MSC_GDPS_RelativeVorticity_IsbL-0500_LatLon0.15_PT018H.grib2 2026-04-29 15:59 1.5M
20260429T12Z_MSC_GDPS_RelativeVorticity_IsbL-0700_LatLon0.15_PT018H.grib2 2026-04-29 15:59 1.6M
20260429T12Z_MSC_GDPS_RelativeVorticity_IsbL-0850_LatLon0.15_PT018H.grib2 2026-04-29 15:59 1.6M
20260429T12Z_MSC_GDPS_Runoff-Accum_Sfc_LatLon0.15_PT018H.grib2 2026-04-29 15:59 101K
20260429T12Z_MSC_GDPS_SensibleHeatNetFlux_Sfc_LatLon0.15_PT018H.grib2 2026-04-29 15:59 647K
20260429T12Z_MSC_GDPS_ShowalterIndex_IsbL-0500_LatLon0.15_PT018H.grib2 2026-04-29 15:59 6.2M
20260429T12Z_MSC_GDPS_Snow-Accum12h_Sfc_LatLon0.15_PT018H.grib2 2026-04-29 15:59 1.4M
20260429T12Z_MSC_GDPS_Snow-Accum1h_Sfc_LatLon0.15_PT018H.grib2 2026-04-29 15:59 1.1M
20260429T12Z_MSC_GDPS_Snow-Accum3h_Sfc_LatLon0.15_PT018H.grib2 2026-04-29 15:59 1.1M
20260429T12Z_MSC_GDPS_Snow-Accum6h_Sfc_LatLon0.15_PT018H.grib2 2026-04-29 15:59 1.4M
20260429T12Z_MSC_GDPS_Snow-Accum_Sfc_LatLon0.15_PT018H.grib2 2026-04-29 15:59 1.7M
20260429T12Z_MSC_GDPS_SnowDensity_Sfc_LatLon0.15_PT018H.grib2 2026-04-29 15:59 256K
20260429T12Z_MSC_GDPS_SnowDepth_Sfc_LatLon0.15_PT018H.grib2 2026-04-29 15:59 1.7M
20260429T12Z_MSC_GDPS_SoilTemp_DBS-0to10cm_LatLon0.15_PT018H.grib2 2026-04-29 15:59 496K
20260429T12Z_MSC_GDPS_SoilTemp_Sfc_LatLon0.15_PT018H.grib2 2026-04-29 15:59 576K
20260429T12Z_MSC_GDPS_SoilVolumetricIceContent_Sfc_LatLon0.15_PT018H.grib2 2026-04-29 15:59 208K
20260429T12Z_MSC_GDPS_SoilVolumetricWaterContent_DBS-0to10cm_LatLon0.15_PT018H.grib2 2026-04-29 15:59 582K
20260429T12Z_MSC_GDPS_SoilVolumetricWaterContent_DBS-0to1cm_LatLon0.15_PT018H.grib2 2026-04-29 15:59 648K
20260429T12Z_MSC_GDPS_SpecificHumidity_AGL-120m_LatLon0.15_PT018H.grib2 2026-04-29 15:59 1.1M
20260429T12Z_MSC_GDPS_SpecificHumidity_AGL-2m_LatLon0.15_PT018H.grib2 2026-04-29 15:59 1.2M
20260429T12Z_MSC_GDPS_SpecificHumidity_AGL-40m_LatLon0.15_PT018H.grib2 2026-04-29 15:59 1.1M
20260429T12Z_MSC_GDPS_SpecificHumidity_AGL-80m_LatLon0.15_PT018H.grib2 2026-04-29 15:59 1.1M
20260429T12Z_MSC_GDPS_SpecificHumidity_IsbL-0001_LatLon0.15_PT018H.grib2 2026-04-29 15:59 1.3M
20260429T12Z_MSC_GDPS_SpecificHumidity_IsbL-0005_LatLon0.15_PT018H.grib2 2026-04-29 15:59 1.3M
20260429T12Z_MSC_GDPS_SpecificHumidity_IsbL-0010_LatLon0.15_PT018H.grib2 2026-04-29 15:59 1.4M
20260429T12Z_MSC_GDPS_SpecificHumidity_IsbL-0020_LatLon0.15_PT018H.grib2 2026-04-29 15:59 1.4M
20260429T12Z_MSC_GDPS_SpecificHumidity_IsbL-0030_LatLon0.15_PT018H.grib2 2026-04-29 15:59 1.4M
20260429T12Z_MSC_GDPS_SpecificHumidity_IsbL-0050_LatLon0.15_PT018H.grib2 2026-04-29 15:59 1.7M
20260429T12Z_MSC_GDPS_SpecificHumidity_IsbL-0100_LatLon0.15_PT018H.grib2 2026-04-29 15:59 1.1M
20260429T12Z_MSC_GDPS_SpecificHumidity_IsbL-0150_LatLon0.15_PT018H.grib2 2026-04-29 15:59 1.3M
20260429T12Z_MSC_GDPS_SpecificHumidity_IsbL-0175_LatLon0.15_PT018H.grib2 2026-04-29 15:59 1.2M
20260429T12Z_MSC_GDPS_SpecificHumidity_IsbL-0200_LatLon0.15_PT018H.grib2 2026-04-29 15:59 1.3M
20260429T12Z_MSC_GDPS_SpecificHumidity_IsbL-0225_LatLon0.15_PT018H.grib2 2026-04-29 15:59 1.3M
20260429T12Z_MSC_GDPS_SpecificHumidity_IsbL-0250_LatLon0.15_PT018H.grib2 2026-04-29 15:59 1.4M
20260429T12Z_MSC_GDPS_SpecificHumidity_IsbL-0275_LatLon0.15_PT018H.grib2 2026-04-29 15:59 1.3M
20260429T12Z_MSC_GDPS_SpecificHumidity_IsbL-0300_LatLon0.15_PT018H.grib2 2026-04-29 15:59 1.2M
20260429T12Z_MSC_GDPS_SpecificHumidity_IsbL-0350_LatLon0.15_PT018H.grib2 2026-04-29 15:59 1.2M
20260429T12Z_MSC_GDPS_SpecificHumidity_IsbL-0400_LatLon0.15_PT018H.grib2 2026-04-29 15:59 1.4M
20260429T12Z_MSC_GDPS_SpecificHumidity_IsbL-0450_LatLon0.15_PT018H.grib2 2026-04-29 15:59 1.6M
20260429T12Z_MSC_GDPS_SpecificHumidity_IsbL-0500_LatLon0.15_PT018H.grib2 2026-04-29 15:59 1.4M
20260429T12Z_MSC_GDPS_SpecificHumidity_IsbL-0550_LatLon0.15_PT018H.grib2 2026-04-29 15:59 1.6M
20260429T12Z_MSC_GDPS_SpecificHumidity_IsbL-0600_LatLon0.15_PT018H.grib2 2026-04-29 15:59 1.7M
20260429T12Z_MSC_GDPS_SpecificHumidity_IsbL-0650_LatLon0.15_PT018H.grib2 2026-04-29 15:59 1.5M
20260429T12Z_MSC_GDPS_SpecificHumidity_IsbL-0700_LatLon0.15_PT018H.grib2 2026-04-29 15:59 1.6M
20260429T12Z_MSC_GDPS_SpecificHumidity_IsbL-0750_LatLon0.15_PT018H.grib2 2026-04-29 15:59 1.7M
20260429T12Z_MSC_GDPS_SpecificHumidity_IsbL-0800_LatLon0.15_PT018H.grib2 2026-04-29 15:59 1.8M
20260429T12Z_MSC_GDPS_SpecificHumidity_IsbL-0850_LatLon0.15_PT018H.grib2 2026-04-29 15:59 1.9M
20260429T12Z_MSC_GDPS_SpecificHumidity_IsbL-0875_LatLon0.15_PT018H.grib2 2026-04-29 15:59 1.9M
20260429T12Z_MSC_GDPS_SpecificHumidity_IsbL-0900_LatLon0.15_PT018H.grib2 2026-04-29 15:59 1.6M
20260429T12Z_MSC_GDPS_SpecificHumidity_IsbL-0925_LatLon0.15_PT018H.grib2 2026-04-29 15:59 1.6M
20260429T12Z_MSC_GDPS_SpecificHumidity_IsbL-0950_LatLon0.15_PT018H.grib2 2026-04-29 15:59 1.5M
20260429T12Z_MSC_GDPS_SpecificHumidity_IsbL-0970_LatLon0.15_PT018H.grib2 2026-04-29 15:59 1.5M
20260429T12Z_MSC_GDPS_SpecificHumidity_IsbL-0985_LatLon0.15_PT018H.grib2 2026-04-29 15:59 1.5M
20260429T12Z_MSC_GDPS_SpecificHumidity_IsbL-1000_LatLon0.15_PT018H.grib2 2026-04-29 15:59 1.5M
20260429T12Z_MSC_GDPS_SpecificHumidity_IsbL-1015_LatLon0.15_PT018H.grib2 2026-04-29 15:59 1.4M
20260429T12Z_MSC_GDPS_SpecificHumidity_Sfc_LatLon0.15_PT018H.grib2 2026-04-29 15:59 662K
20260429T12Z_MSC_GDPS_Thickness_IsbL-0850to0700_LatLon0.15_PT018H.grib2 2026-04-29 15:59 468K
20260429T12Z_MSC_GDPS_Thickness_IsbL-1000to0500_LatLon0.15_PT018H.grib2 2026-04-29 15:59 373K
20260429T12Z_MSC_GDPS_Thickness_IsbL-1000to0850_LatLon0.15_PT018H.grib2 2026-04-29 15:59 490K
20260429T12Z_MSC_GDPS_TotalCloudCover_Sfc_LatLon0.15_PT018H.grib2 2026-04-29 15:59 827K
20260429T12Z_MSC_GDPS_TotalTotalsIndex_Sfc_LatLon0.15_PT018H.grib2 2026-04-29 15:59 6.2M
20260429T12Z_MSC_GDPS_UVIndex-ClearSky_Sfc_LatLon0.15_PT018H.grib2 2026-04-29 16:49 1.1M
20260429T12Z_MSC_GDPS_UVIndex_Sfc_LatLon0.15_PT018H.grib2 2026-04-29 16:49 1.5M
20260429T12Z_MSC_GDPS_UpwardLongwaveRadiationFlux_NTAtm_LatLon0.15_PT018H.grib2 2026-04-29 15:59 1.1M
20260429T12Z_MSC_GDPS_VerticalVelocity_IsbL-0200_LatLon0.15_PT018H.grib2 2026-04-29 15:59 1.2M
20260429T12Z_MSC_GDPS_VerticalVelocity_IsbL-0250_LatLon0.15_PT018H.grib2 2026-04-29 15:59 1.0M
20260429T12Z_MSC_GDPS_VerticalVelocity_IsbL-0500_LatLon0.15_PT018H.grib2 2026-04-29 15:59 1.0M
20260429T12Z_MSC_GDPS_VerticalVelocity_IsbL-0600_LatLon0.15_PT018H.grib2 2026-04-29 15:59 1.1M
20260429T12Z_MSC_GDPS_VerticalVelocity_IsbL-0700_LatLon0.15_PT018H.grib2 2026-04-29 15:59 1.1M
20260429T12Z_MSC_GDPS_VerticalVelocity_IsbL-0850_LatLon0.15_PT018H.grib2 2026-04-29 15:59 1.6M
20260429T12Z_MSC_GDPS_WindChill_Sfc_LatLon0.15_PT018H.grib2 2026-04-29 15:59 5.3M
20260429T12Z_MSC_GDPS_WindDir_AGL-10m_LatLon0.15_PT018H.grib2 2026-04-29 15:59 1.3M
20260429T12Z_MSC_GDPS_WindDir_AGL-120m_LatLon0.15_PT018H.grib2 2026-04-29 15:59 1.4M
20260429T12Z_MSC_GDPS_WindDir_AGL-40m_LatLon0.15_PT018H.grib2 2026-04-29 15:59 1.4M
20260429T12Z_MSC_GDPS_WindDir_AGL-80m_LatLon0.15_PT018H.grib2 2026-04-29 15:59 1.4M
20260429T12Z_MSC_GDPS_WindDir_IsbL-0001_LatLon0.15_PT018H.grib2 2026-04-29 15:59 695K
20260429T12Z_MSC_GDPS_WindDir_IsbL-0005_LatLon0.15_PT018H.grib2 2026-04-29 15:59 797K
20260429T12Z_MSC_GDPS_WindDir_IsbL-0010_LatLon0.15_PT018H.grib2 2026-04-29 15:59 862K
20260429T12Z_MSC_GDPS_WindDir_IsbL-0020_LatLon0.15_PT018H.grib2 2026-04-29 15:59 947K
20260429T12Z_MSC_GDPS_WindDir_IsbL-0030_LatLon0.15_PT018H.grib2 2026-04-29 15:59 933K
20260429T12Z_MSC_GDPS_WindDir_IsbL-0050_LatLon0.15_PT018H.grib2 2026-04-29 15:59 952K
20260429T12Z_MSC_GDPS_WindDir_IsbL-0100_LatLon0.15_PT018H.grib2 2026-04-29 15:59 1.0M
20260429T12Z_MSC_GDPS_WindDir_IsbL-0150_LatLon0.15_PT018H.grib2 2026-04-29 15:59 1.0M
20260429T12Z_MSC_GDPS_WindDir_IsbL-0175_LatLon0.15_PT018H.grib2 2026-04-29 15:59 1.1M
20260429T12Z_MSC_GDPS_WindDir_IsbL-0200_LatLon0.15_PT018H.grib2 2026-04-29 15:59 1.1M
20260429T12Z_MSC_GDPS_WindDir_IsbL-0225_LatLon0.15_PT018H.grib2 2026-04-29 15:59 1.1M
20260429T12Z_MSC_GDPS_WindDir_IsbL-0250_LatLon0.15_PT018H.grib2 2026-04-29 15:59 1.1M
20260429T12Z_MSC_GDPS_WindDir_IsbL-0275_LatLon0.15_PT018H.grib2 2026-04-29 15:59 1.2M
20260429T12Z_MSC_GDPS_WindDir_IsbL-0300_LatLon0.15_PT018H.grib2 2026-04-29 15:59 1.2M
20260429T12Z_MSC_GDPS_WindDir_IsbL-0350_LatLon0.15_PT018H.grib2 2026-04-29 15:59 1.2M
20260429T12Z_MSC_GDPS_WindDir_IsbL-0400_LatLon0.15_PT018H.grib2 2026-04-29 15:59 1.2M
20260429T12Z_MSC_GDPS_WindDir_IsbL-0450_LatLon0.15_PT018H.grib2 2026-04-29 15:59 1.3M
20260429T12Z_MSC_GDPS_WindDir_IsbL-0500_LatLon0.15_PT018H.grib2 2026-04-29 15:59 1.3M
20260429T12Z_MSC_GDPS_WindDir_IsbL-0550_LatLon0.15_PT018H.grib2 2026-04-29 15:59 1.4M
20260429T12Z_MSC_GDPS_WindDir_IsbL-0600_LatLon0.15_PT018H.grib2 2026-04-29 15:59 1.4M
20260429T12Z_MSC_GDPS_WindDir_IsbL-0650_LatLon0.15_PT018H.grib2 2026-04-29 15:59 1.5M
20260429T12Z_MSC_GDPS_WindDir_IsbL-0700_LatLon0.15_PT018H.grib2 2026-04-29 15:59 1.6M
20260429T12Z_MSC_GDPS_WindDir_IsbL-0750_LatLon0.15_PT018H.grib2 2026-04-29 15:59 1.7M
20260429T12Z_MSC_GDPS_WindDir_IsbL-0800_LatLon0.15_PT018H.grib2 2026-04-29 15:59 1.8M
20260429T12Z_MSC_GDPS_WindDir_IsbL-0850_LatLon0.15_PT018H.grib2 2026-04-29 15:59 1.9M
20260429T12Z_MSC_GDPS_WindDir_IsbL-0875_LatLon0.15_PT018H.grib2 2026-04-29 15:59 2.0M
20260429T12Z_MSC_GDPS_WindDir_IsbL-0900_LatLon0.15_PT018H.grib2 2026-04-29 15:59 2.0M
20260429T12Z_MSC_GDPS_WindDir_IsbL-0925_LatLon0.15_PT018H.grib2 2026-04-29 15:59 2.0M
20260429T12Z_MSC_GDPS_WindDir_IsbL-0950_LatLon0.15_PT018H.grib2 2026-04-29 15:59 2.0M
20260429T12Z_MSC_GDPS_WindDir_IsbL-0970_LatLon0.15_PT018H.grib2 2026-04-29 15:59 2.0M
20260429T12Z_MSC_GDPS_WindDir_IsbL-0985_LatLon0.15_PT018H.grib2 2026-04-29 15:59 2.0M
20260429T12Z_MSC_GDPS_WindDir_IsbL-1000_LatLon0.15_PT018H.grib2 2026-04-29 15:59 2.1M
20260429T12Z_MSC_GDPS_WindDir_IsbL-1015_LatLon0.15_PT018H.grib2 2026-04-29 15:59 2.0M
20260429T12Z_MSC_GDPS_WindGust-Max_AGL-10m_LatLon0.15_PT018H.grib2 2026-04-29 15:59 2.2M
20260429T12Z_MSC_GDPS_WindGust-Min_AGL-10m_LatLon0.15_PT018H.grib2 2026-04-29 15:59 2.2M
20260429T12Z_MSC_GDPS_WindGust_AGL-10m_LatLon0.15_PT018H.grib2 2026-04-29 15:59 2.2M
20260429T12Z_MSC_GDPS_WindSpeed_AGL-10m_LatLon0.15_PT018H.grib2 2026-04-29 15:59 1.1M
20260429T12Z_MSC_GDPS_WindSpeed_AGL-120m_LatLon0.15_PT018H.grib2 2026-04-29 15:59 1.2M
20260429T12Z_MSC_GDPS_WindSpeed_AGL-40m_LatLon0.15_PT018H.grib2 2026-04-29 15:59 1.2M
20260429T12Z_MSC_GDPS_WindSpeed_AGL-80m_LatLon0.15_PT018H.grib2 2026-04-29 15:59 1.2M
20260429T12Z_MSC_GDPS_WindSpeed_IsbL-0001_LatLon0.15_PT018H.grib2 2026-04-29 15:59 644K
20260429T12Z_MSC_GDPS_WindSpeed_IsbL-0005_LatLon0.15_PT018H.grib2 2026-04-29 15:59 697K
20260429T12Z_MSC_GDPS_WindSpeed_IsbL-0010_LatLon0.15_PT018H.grib2 2026-04-29 15:59 636K
20260429T12Z_MSC_GDPS_WindSpeed_IsbL-0020_LatLon0.15_PT018H.grib2 2026-04-29 15:59 671K
20260429T12Z_MSC_GDPS_WindSpeed_IsbL-0030_LatLon0.15_PT018H.grib2 2026-04-29 15:59 868K
20260429T12Z_MSC_GDPS_WindSpeed_IsbL-0050_LatLon0.15_PT018H.grib2 2026-04-29 15:59 913K
20260429T12Z_MSC_GDPS_WindSpeed_IsbL-0100_LatLon0.15_PT018H.grib2 2026-04-29 15:59 1.1M
20260429T12Z_MSC_GDPS_WindSpeed_IsbL-0150_LatLon0.15_PT018H.grib2 2026-04-29 15:59 1.0M
20260429T12Z_MSC_GDPS_WindSpeed_IsbL-0175_LatLon0.15_PT018H.grib2 2026-04-29 15:59 1.0M
20260429T12Z_MSC_GDPS_WindSpeed_IsbL-0200_LatLon0.15_PT018H.grib2 2026-04-29 15:59 1.1M
20260429T12Z_MSC_GDPS_WindSpeed_IsbL-0225_LatLon0.15_PT018H.grib2 2026-04-29 15:59 1.1M
20260429T12Z_MSC_GDPS_WindSpeed_IsbL-0250_LatLon0.15_PT018H.grib2 2026-04-29 15:59 1.1M
20260429T12Z_MSC_GDPS_WindSpeed_IsbL-0275_LatLon0.15_PT018H.grib2 2026-04-29 15:59 1.1M
20260429T12Z_MSC_GDPS_WindSpeed_IsbL-0300_LatLon0.15_PT018H.grib2 2026-04-29 15:59 1.1M
20260429T12Z_MSC_GDPS_WindSpeed_IsbL-0350_LatLon0.15_PT018H.grib2 2026-04-29 15:59 1.1M
20260429T12Z_MSC_GDPS_WindSpeed_IsbL-0400_LatLon0.15_PT018H.grib2 2026-04-29 15:59 1.1M
20260429T12Z_MSC_GDPS_WindSpeed_IsbL-0450_LatLon0.15_PT018H.grib2 2026-04-29 15:59 1.1M
20260429T12Z_MSC_GDPS_WindSpeed_IsbL-0500_LatLon0.15_PT018H.grib2 2026-04-29 15:59 1.1M
20260429T12Z_MSC_GDPS_WindSpeed_IsbL-0550_LatLon0.15_PT018H.grib2 2026-04-29 15:59 1.1M
20260429T12Z_MSC_GDPS_WindSpeed_IsbL-0600_LatLon0.15_PT018H.grib2 2026-04-29 15:59 1.1M
20260429T12Z_MSC_GDPS_WindSpeed_IsbL-0650_LatLon0.15_PT018H.grib2 2026-04-29 15:59 1.4M
20260429T12Z_MSC_GDPS_WindSpeed_IsbL-0700_LatLon0.15_PT018H.grib2 2026-04-29 15:59 1.5M
20260429T12Z_MSC_GDPS_WindSpeed_IsbL-0750_LatLon0.15_PT018H.grib2 2026-04-29 15:59 1.5M
20260429T12Z_MSC_GDPS_WindSpeed_IsbL-0800_LatLon0.15_PT018H.grib2 2026-04-29 15:59 1.7M
20260429T12Z_MSC_GDPS_WindSpeed_IsbL-0850_LatLon0.15_PT018H.grib2 2026-04-29 15:59 1.8M
20260429T12Z_MSC_GDPS_WindSpeed_IsbL-0875_LatLon0.15_PT018H.grib2 2026-04-29 15:59 1.8M
20260429T12Z_MSC_GDPS_WindSpeed_IsbL-0900_LatLon0.15_PT018H.grib2 2026-04-29 15:59 1.9M
20260429T12Z_MSC_GDPS_WindSpeed_IsbL-0925_LatLon0.15_PT018H.grib2 2026-04-29 15:59 1.9M
20260429T12Z_MSC_GDPS_WindSpeed_IsbL-0950_LatLon0.15_PT018H.grib2 2026-04-29 15:59 1.9M
20260429T12Z_MSC_GDPS_WindSpeed_IsbL-0970_LatLon0.15_PT018H.grib2 2026-04-29 15:59 1.9M
20260429T12Z_MSC_GDPS_WindSpeed_IsbL-0985_LatLon0.15_PT018H.grib2 2026-04-29 15:59 1.8M
20260429T12Z_MSC_GDPS_WindSpeed_IsbL-1000_LatLon0.15_PT018H.grib2 2026-04-29 15:59 1.8M
20260429T12Z_MSC_GDPS_WindSpeed_IsbL-1015_LatLon0.15_PT018H.grib2 2026-04-29 15:59 1.8M
20260429T12Z_MSC_GDPS_WindU_AGL-10m_LatLon0.15_PT018H.grib2 2026-04-29 15:59 1.6M
20260429T12Z_MSC_GDPS_WindU_AGL-120m_LatLon0.15_PT018H.grib2 2026-04-29 15:59 970K
20260429T12Z_MSC_GDPS_WindU_AGL-40m_LatLon0.15_PT018H.grib2 2026-04-29 15:59 967K
20260429T12Z_MSC_GDPS_WindU_AGL-80m_LatLon0.15_PT018H.grib2 2026-04-29 15:59 971K
20260429T12Z_MSC_GDPS_WindU_IsbL-0001_LatLon0.15_PT018H.grib2 2026-04-29 15:59 504K
20260429T12Z_MSC_GDPS_WindU_IsbL-0005_LatLon0.15_PT018H.grib2 2026-04-29 15:59 699K
20260429T12Z_MSC_GDPS_WindU_IsbL-0010_LatLon0.15_PT018H.grib2 2026-04-29 15:59 712K
20260429T12Z_MSC_GDPS_WindU_IsbL-0020_LatLon0.15_PT018H.grib2 2026-04-29 15:59 738K
20260429T12Z_MSC_GDPS_WindU_IsbL-0030_LatLon0.15_PT018H.grib2 2026-04-29 15:59 745K
20260429T12Z_MSC_GDPS_WindU_IsbL-0050_LatLon0.15_PT018H.grib2 2026-04-29 15:59 703K
20260429T12Z_MSC_GDPS_WindU_IsbL-0100_LatLon0.15_PT018H.grib2 2026-04-29 15:59 917K
20260429T12Z_MSC_GDPS_WindU_IsbL-0150_LatLon0.15_PT018H.grib2 2026-04-29 15:59 1.0M
20260429T12Z_MSC_GDPS_WindU_IsbL-0175_LatLon0.15_PT018H.grib2 2026-04-29 15:59 1.0M
20260429T12Z_MSC_GDPS_WindU_IsbL-0200_LatLon0.15_PT018H.grib2 2026-04-29 15:59 843K
20260429T12Z_MSC_GDPS_WindU_IsbL-0225_LatLon0.15_PT018H.grib2 2026-04-29 15:59 851K
20260429T12Z_MSC_GDPS_WindU_IsbL-0250_LatLon0.15_PT018H.grib2 2026-04-29 15:59 853K
20260429T12Z_MSC_GDPS_WindU_IsbL-0275_LatLon0.15_PT018H.grib2 2026-04-29 15:59 879K
20260429T12Z_MSC_GDPS_WindU_IsbL-0300_LatLon0.15_PT018H.grib2 2026-04-29 15:59 869K
20260429T12Z_MSC_GDPS_WindU_IsbL-0350_LatLon0.15_PT018H.grib2 2026-04-29 15:59 885K
20260429T12Z_MSC_GDPS_WindU_IsbL-0400_LatLon0.15_PT018H.grib2 2026-04-29 15:59 889K
20260429T12Z_MSC_GDPS_WindU_IsbL-0450_LatLon0.15_PT018H.grib2 2026-04-29 15:59 1.1M
20260429T12Z_MSC_GDPS_WindU_IsbL-0500_LatLon0.15_PT018H.grib2 2026-04-29 15:59 1.1M
20260429T12Z_MSC_GDPS_WindU_IsbL-0550_LatLon0.15_PT018H.grib2 2026-04-29 15:59 1.1M
20260429T12Z_MSC_GDPS_WindU_IsbL-0600_LatLon0.15_PT018H.grib2 2026-04-29 15:59 1.1M
20260429T12Z_MSC_GDPS_WindU_IsbL-0650_LatLon0.15_PT018H.grib2 2026-04-29 15:59 1.2M
20260429T12Z_MSC_GDPS_WindU_IsbL-0700_LatLon0.15_PT018H.grib2 2026-04-29 15:59 1.2M
20260429T12Z_MSC_GDPS_WindU_IsbL-0750_LatLon0.15_PT018H.grib2 2026-04-29 15:59 1.3M
20260429T12Z_MSC_GDPS_WindU_IsbL-0800_LatLon0.15_PT018H.grib2 2026-04-29 15:59 1.3M
20260429T12Z_MSC_GDPS_WindU_IsbL-0850_LatLon0.15_PT018H.grib2 2026-04-29 15:59 1.4M
20260429T12Z_MSC_GDPS_WindU_IsbL-0875_LatLon0.15_PT018H.grib2 2026-04-29 15:59 1.4M
20260429T12Z_MSC_GDPS_WindU_IsbL-0900_LatLon0.15_PT018H.grib2 2026-04-29 15:59 1.5M
20260429T12Z_MSC_GDPS_WindU_IsbL-0925_LatLon0.15_PT018H.grib2 2026-04-29 15:59 1.4M
20260429T12Z_MSC_GDPS_WindU_IsbL-0950_LatLon0.15_PT018H.grib2 2026-04-29 15:59 1.4M
20260429T12Z_MSC_GDPS_WindU_IsbL-0970_LatLon0.15_PT018H.grib2 2026-04-29 15:59 1.4M
20260429T12Z_MSC_GDPS_WindU_IsbL-0985_LatLon0.15_PT018H.grib2 2026-04-29 15:59 1.7M
20260429T12Z_MSC_GDPS_WindU_IsbL-1000_LatLon0.15_PT018H.grib2 2026-04-29 15:59 1.7M
20260429T12Z_MSC_GDPS_WindU_IsbL-1015_LatLon0.15_PT018H.grib2 2026-04-29 15:59 1.6M
20260429T12Z_MSC_GDPS_WindV_AGL-10m_LatLon0.15_PT018H.grib2 2026-04-29 15:59 1.3M
20260429T12Z_MSC_GDPS_WindV_AGL-120m_LatLon0.15_PT018H.grib2 2026-04-29 15:59 971K
20260429T12Z_MSC_GDPS_WindV_AGL-40m_LatLon0.15_PT018H.grib2 2026-04-29 15:59 964K
20260429T12Z_MSC_GDPS_WindV_AGL-80m_LatLon0.15_PT018H.grib2 2026-04-29 15:59 970K
20260429T12Z_MSC_GDPS_WindV_IsbL-0001_LatLon0.15_PT018H.grib2 2026-04-29 15:59 561K
20260429T12Z_MSC_GDPS_WindV_IsbL-0005_LatLon0.15_PT018H.grib2 2026-04-29 15:59 864K
20260429T12Z_MSC_GDPS_WindV_IsbL-0010_LatLon0.15_PT018H.grib2 2026-04-29 15:59 802K
20260429T12Z_MSC_GDPS_WindV_IsbL-0020_LatLon0.15_PT018H.grib2 2026-04-29 15:59 855K
20260429T12Z_MSC_GDPS_WindV_IsbL-0030_LatLon0.15_PT018H.grib2 2026-04-29 15:59 856K
20260429T12Z_MSC_GDPS_WindV_IsbL-0050_LatLon0.15_PT018H.grib2 2026-04-29 15:59 908K
20260429T12Z_MSC_GDPS_WindV_IsbL-0100_LatLon0.15_PT018H.grib2 2026-04-29 15:59 849K
20260429T12Z_MSC_GDPS_WindV_IsbL-0150_LatLon0.15_PT018H.grib2 2026-04-29 15:59 1.0M
20260429T12Z_MSC_GDPS_WindV_IsbL-0175_LatLon0.15_PT018H.grib2 2026-04-29 15:59 1.0M
20260429T12Z_MSC_GDPS_WindV_IsbL-0200_LatLon0.15_PT018H.grib2 2026-04-29 15:59 844K
20260429T12Z_MSC_GDPS_WindV_IsbL-0225_LatLon0.15_PT018H.grib2 2026-04-29 15:59 909K
20260429T12Z_MSC_GDPS_WindV_IsbL-0250_LatLon0.15_PT018H.grib2 2026-04-29 15:59 910K
20260429T12Z_MSC_GDPS_WindV_IsbL-0275_LatLon0.15_PT018H.grib2 2026-04-29 15:59 933K
20260429T12Z_MSC_GDPS_WindV_IsbL-0300_LatLon0.15_PT018H.grib2 2026-04-29 15:59 922K
20260429T12Z_MSC_GDPS_WindV_IsbL-0350_LatLon0.15_PT018H.grib2 2026-04-29 15:59 877K
20260429T12Z_MSC_GDPS_WindV_IsbL-0400_LatLon0.15_PT018H.grib2 2026-04-29 15:59 878K
20260429T12Z_MSC_GDPS_WindV_IsbL-0450_LatLon0.15_PT018H.grib2 2026-04-29 15:59 1.1M
20260429T12Z_MSC_GDPS_WindV_IsbL-0500_LatLon0.15_PT018H.grib2 2026-04-29 15:59 1.1M
20260429T12Z_MSC_GDPS_WindV_IsbL-0550_LatLon0.15_PT018H.grib2 2026-04-29 15:59 1.1M
20260429T12Z_MSC_GDPS_WindV_IsbL-0600_LatLon0.15_PT018H.grib2 2026-04-29 15:59 1.1M
20260429T12Z_MSC_GDPS_WindV_IsbL-0650_LatLon0.15_PT018H.grib2 2026-04-29 15:59 1.2M
20260429T12Z_MSC_GDPS_WindV_IsbL-0700_LatLon0.15_PT018H.grib2 2026-04-29 15:59 1.2M
20260429T12Z_MSC_GDPS_WindV_IsbL-0750_LatLon0.15_PT018H.grib2 2026-04-29 15:59 1.3M
20260429T12Z_MSC_GDPS_WindV_IsbL-0800_LatLon0.15_PT018H.grib2 2026-04-29 15:59 1.3M
20260429T12Z_MSC_GDPS_WindV_IsbL-0850_LatLon0.15_PT018H.grib2 2026-04-29 15:59 1.4M
20260429T12Z_MSC_GDPS_WindV_IsbL-0875_LatLon0.15_PT018H.grib2 2026-04-29 15:59 1.4M
20260429T12Z_MSC_GDPS_WindV_IsbL-0900_LatLon0.15_PT018H.grib2 2026-04-29 15:59 1.4M
20260429T12Z_MSC_GDPS_WindV_IsbL-0925_LatLon0.15_PT018H.grib2 2026-04-29 15:59 1.4M
20260429T12Z_MSC_GDPS_WindV_IsbL-0950_LatLon0.15_PT018H.grib2 2026-04-29 15:59 1.4M
20260429T12Z_MSC_GDPS_WindV_IsbL-0970_LatLon0.15_PT018H.grib2 2026-04-29 15:59 1.4M
20260429T12Z_MSC_GDPS_WindV_IsbL-0985_LatLon0.15_PT018H.grib2 2026-04-29 15:59 1.4M
20260429T12Z_MSC_GDPS_WindV_IsbL-1000_LatLon0.15_PT018H.grib2 2026-04-29 15:59 1.4M
20260429T12Z_MSC_GDPS_WindV_IsbL-1015_LatLon0.15_PT018H.grib2 2026-04-29 15:59 1.3M